Погода в Сен-Дени

Франция     48°56′26″N   2°22′02″E
темп.,
°C
ветер,
м/с
пор.,
м/с
влажн.,
%
обл.,
%
осадки,
мм/ч
давл.,
гПа
погр.,
м
6 марта, сб
сб601:00+2св496134 0.0 1031382
04:00+1св49650 0.0 1030357
07:00+1св49700 0.0 1031367
10:00+3всв59520 0.0 1031627
13:00+7всв58370 0.0 1031943
16:00+9всв58350 0.0 10291164
19:00+6всв49450 0.0 1028735
22:00+4св37540 0.0 1028406
7 марта, вс
вс701:00+2св36660 0.0 1028239
04:00+1св36660 0.0 1026232
07:000св36640 0.0 1027249
10:00+3св24500 0.0 1026326
13:00+8св34340 0.0 1025833
16:00+9ссв34350 0.0 10231084
19:00+6ссв36520 0.0 1023563
22:00+4ссв36590 0.0 1025286
8 марта, пн
пн801:00+2ссв36740 0.0 1024252
04:00+1ссв24790 0.0 1024182
07:000с24800 0.0 1024169
10:00+3ссв24660 0.0 1024341
13:00+7ссв12430 0.0 1024896
16:00+8с223956 0.0 10221059
19:00+6с234729 0.0 1022372
22:00+5ссв115233 0.0 102235
9 марта, вт
вт901:00+3ссз236445 0.0 1022129
04:00+2сз23782 0.0 1021159
07:00+2з13821 0.0 1022155
10:00+5з247441 0.0 1023295
13:00+8з235734 0.0 1022931
16:00+9зсз335418 0.0 10211069
19:00+7з236415 0.0 1021713
22:00+6ю12683 0.0 102234
10 марта, ср
ср1001:00+5юз267219 0.0 1021230
04:00+5ююз487278 0.0 1020412
07:00+5ююз5127089 0.0 1020721
10:00+7ююз5117191 0.0 1021671
13:00+8ююз6126695 0.0 1019890
16:00+10ююз51268100 0.0 10171056
19:00+10ююз61471100 0.0 10151039
22:00+9юз81666100 0.0 10151010